This is the latest recevied weather packets stored in our database for station/object KB8SSH. If no packets are shown the sender has not sent any weather packets the latest 10 day(s).
| Time | Temp. | Humidity | Pressure | Rain* | Wind** | Luminosity | Snow |
|---|---|---|---|---|---|---|---|
| 1777584069 | 14.44° C | 46% | 1048.1 hPa | 0 mm | - | 373 W/m² | - |
| 1777583763 | 13.89° C | 46% | 1048.1 hPa | 0 mm | - | 287 W/m² | - |
| 1777583463 | 13.89° C | 47% | 1048.1 hPa | 0 mm | - | 101 W/m² | - |
| 1777583157 | 15° C | 44% | 1048.1 hPa | 0 mm | - | 69 W/m² | - |
| 1777582853 | 15.56° C | 46% | 1048.1 hPa | 0 mm | - | 377 W/m² | - |
| 1777582550 | 15° C | 45% | 1048.4 hPa | 0 mm | - | 520 W/m² | - |
| 1777582245 | 15° C | 44% | 1048.4 hPa | 0 mm | - | 561 W/m² | - |
| 1777581943 | 15° C | 42% | 1048.1 hPa | 0 mm | - | 568 W/m² | - |
| 1777581638 | 15.56° C | 44% | 1048.4 hPa | 0 mm | - | 576 W/m² | - |
| 1777581332 | 15° C | 50% | 1048.1 hPa | 0 mm | - | 583 W/m² | - |
| 1777581027 | 14.44° C | 49% | 1048.4 hPa | 0 mm | - | 641 W/m² | - |
| 1777580727 | 14.44° C | 51% | 1048.4 hPa | 0 mm | - | 634 W/m² | - |
| 1777580423 | 13.33° C | 55% | 1048.4 hPa | 0 mm | - | 524 W/m² | - |
| 1777580119 | 12.78° C | 56% | 1048.8 hPa | 0 mm | - | 182 W/m² | - |
| 1777579816 | 13.33° C | 55% | 1048.4 hPa | 0 mm | - | 173 W/m² | - |
| 1777579514 | 12.78° C | 55% | 1048.4 hPa | 0 mm | - | 239 W/m² | - |
| 1777579209 | 12.78° C | 55% | 1048.8 hPa | 0 mm | - | 186 W/m² | - |
| 1777578904 | 12.78° C | 59% | 1048.4 hPa | 0 mm | - | 163 W/m² | - |
| 1777578601 | 12.78° C | 56% | 1048.4 hPa | 0 mm | - | 152 W/m² | - |
| 1777578295 | 13.33° C | 55% | 1048.4 hPa | 0 mm | - | 144 W/m² | - |
| 1777577991 | 12.22° C | 61% | 1048.4 hPa | 0 mm | - | 181 W/m² | - |
| 1777577686 | 12.22° C | 56% | 1048.8 hPa | 0 mm | - | 197 W/m² | - |
| 1777577384 | 12.78° C | 56% | 1048.4 hPa | 0 mm | - | 187 W/m² | - |
| 1777577079 | 12.22° C | 58% | 1048.8 hPa | 0 mm | - | 707 W/m² | - |
| 1777576776 | 12.78° C | 57% | 1048.8 hPa | 0 mm | - | 142 W/m² | - |
* Rain latest hour (hover to see other rain measurements)
** Current wind speed in m/s (hover to see current wind gust speed)